EST,Max TemperatureF,Mean TemperatureF,Min TemperatureF,Max Dew PointF,MeanDew PointF,Min DewpointF,Max Humidity, Mean Humidity, Min Humidity, Max Sea Level PressureIn, Mean Sea Level PressureIn, Min Sea Level PressureIn, Max VisibilityMiles, Mean VisibilityMiles, Min VisibilityMiles, Max Wind SpeedMPH, Mean Wind SpeedMPH, Max Gust SpeedMPH,PrecipitationIn, CloudCover, Events, WindDirDegrees
2013-2-1,52,40,28,27,19,8,69,44,18,30.37,30.22,30.08,10,10,8,31,9,41,0.00,1,Rain,273
2013-2-2,57,40,22,33,17,10,88,52,16,30.40,30.27,30.09,10,10,9,23,5,30,0.00,2,,224
2013-2-3,62,51,39,36,29,19,70,46,22,30.06,30.00,29.90,10,10,10,32,14,41,0.00,2,,264
2013-2-4,54,41,28,31,26,22,85,57,29,30.15,30.08,30.04,10,10,10,12,2,39,0.00,5,,195
2013-2-5,69,52,35,45,37,29,77,55,32,30.04,29.99,29.94,10,9,6,23,7,31,0.00,3,,253
2013-2-6,71,54,37,46,38,31,89,56,22,30.19,30.11,30.01,10,8,2,8,2,22,0.00,0,,320
2013-2-7,52,46,39,46,41,33,93,77,61,30.20,30.09,29.88,10,7,2,18,6,24,1.56,6,Rain,38
2013-2-8,64,55,45,46,42,28,89,64,38,30.11,29.94,29.85,10,10,10,17,8,22,T,5,,306
2013-2-9,65,48,31,32,27,16,92,54,15,30.33,30.24,30.11,10,10,10,10,3,16,0.00,1,,349
2013-2-10,66,50,33,52,38,29,86,63,39,30.43,30.31,30.17,10,10,4,17,7,23,0.20,5,Rain,106
2013-2-11,71,62,53,61,57,51,93,83,73,30.22,30.09,30.03,10,8,2,20,10,29,0.56,8,Rain,201
2013-2-12,66,59,51,54,47,37,93,65,37,30.11,30.01,29.91,10,10,4,13,3,16,0.33,7,Rain,282
2013-2-13,59,54,49,54,47,40,93,78,63,29.90,29.78,29.71,10,6,1,21,8,33,0.13,7,Rain,125
2013-2-14,54,45,36,40,36,33,92,71,50,30.09,30.02,29.90,10,10,7,8,1,12,0.00,4,Fog,256
2013-2-15,66,49,31,40,33,28,92,59,26,30.12,30.03,29.95,10,8,4,14,1,16,0.00,0,,242
2013-2-16,48,41,33,37,33,21,85,72,59,30.05,29.94,29.85,10,8,2,24,6,30,0.26,7,Rain-Hail,319
2013-2-17,48,38,27,20,15,9,69,44,19,30.30,30.19,30.06,10,10,10,15,9,18,0.00,0,,273
2013-2-18,60,42,23,25,21,17,81,52,23,30.42,30.33,30.25,10,10,10,16,4,22,0.00,2,,191
2013-2-19,54,46,37,49,40,25,92,71,49,30.25,30.06,29.97,10,8,2,15,5,23,0.21,6,Rain,236
2013-2-20,59,44,28,31,24,15,85,53,21,30.15,30.10,30.06,10,10,10,10,4,14,0.00,2,,280
2013-2-21,65,49,32,30,23,17,78,49,20,30.22,30.14,30.08,10,10,10,10,4,14,0.00,3,,69
2013-2-22,52,46,40,39,36,26,93,66,38,30.25,30.17,30.09,10,5,2,16,8,22,0.22,8,Rain,49
2013-2-23,47,44,40,45,41,37,93,90,86,30.10,29.95,29.86,10,4,1,15,2,18,0.83,8,Rain,359
2013-2-24,68,55,41,46,43,37,93,65,37,30.00,29.95,29.87,10,8,3,14,4,16,T,5,,295
2013-2-25,52,46,40,40,31,26,86,64,42,30.12,30.05,29.98,10,10,4,17,9,22,T,7,Rain,65
2013-2-26,55,48,40,52,43,33,100,92,83,29.99,29.74,29.57,10,5,0,16,7,22,1.21,8,Fog-Rain,24
2013-2-27,64,52,40,41,37,35,89,63,36,29.86,29.80,29.75,10,10,7,20,9,23,0.00,4,,245
2013-2-28,57,48,38,39,31,26,85,60,35,29.91,29.84,29.78,10,10,10,29,13,38,0.00,2,,271